Home > Weather > Juneau > Past weeks

Flag for U.S.A. Weather for the Past 2 Weeks in Juneau, Alaska, U.S.A.

Now
39 °F

Light rain. Overcast.


Feels Like: 31 °F
Forecast: 36 / 42 °F
Wind: 14 mph from East

Location: Juneau International Airport

Current Time: Feb 14, 2016 at 3:52:48 AM

Latest Report: Feb 14, 2016 at 2:53 AM


Visibility: 9 mi

Pressure: 29.63 "Hg

Humidity: 93%

Dew point: 37 °F

Location of JuneauLocation

Historic Weather in Juneau — Graph

°F

Juneau Temperature Yesterday

Maximum temperature yesterday: 46 °F (at 1:53 PM)
Minimum temperature yesterday: 38 °F (at 6:53 PM)
Average temperature yesterday: 41 °F

High & Low Weather Summary for the Past Weeks

 TemperatureHumidityPressure
High47 °F (Feb 8, 8:53 PM)100% (Jan 31, 5:53 AM)30.25 "Hg (Jan 31, 5:53 AM)
Low24 °F (Jan 31, 11:53 PM)63% (Feb 7, 4:53 AM)29.37 "Hg (Feb 4, 10:53 PM)
Average37 °F89%29.84 "Hg
* Reported Jan 30 1:53 AM — Feb 14 1:53 AM, Juneau, Weather by CustomWeather, © 2016

Note: Actual official high and low records may vary slightly from our data, if they occured in-between our weather recording intervals... More about our weather records

Advertising

Juneau Weather History for the Previous 24 Hours

 ConditionsComfort  
Time TempWeatherWind HumidityBarometerVisibility
1:53 AM
Sun, Feb 14
40 °FLight rain. Overcast.13 mph89%29.63 "Hg10 mi
12:53 AM40 °FLight rain. Overcast.13 mph86%29.63 "Hg10 mi
11:53 PM
Sat, Feb 13
40 °FMostly cloudy.9 mph83%29.63 "Hg10 mi
10:53 PM40 °FMostly cloudy.12 mph86%29.62 "Hg10 mi
9:53 PM40 °FMostly cloudy.14 mph83%29.62 "Hg10 mi
8:53 PM40 °FOvercast.9 mph86%29.62 "Hg10 mi
7:53 PM40 °FOvercast.8 mph89%29.61 "Hg10 mi
6:53 PM38 °FMostly cloudy.7 mph90%29.61 "Hg10 mi
5:53 PM39 °FMostly cloudy.5 mph86%29.61 "Hg10 mi
4:53 PM42 °FMostly cloudy.8 mph79%29.61 "Hg10 mi
3:53 PM43 °FMore clouds than sun.14 mph79%29.62 "Hg10 mi
2:53 PM45 °FCloudy.13 mph74%29.64 "Hg10 mi
1:53 PM46 °FMostly cloudy.9 mph73%29.65 "Hg10 mi
12:53 PM44 °FBroken clouds.13 mph79%29.67 "Hg10 mi
11:53 AM43 °FCloudy.16 mph82%29.68 "Hg10 mi
10:53 AM43 °FLight rain. Cloudy.20 mph82%29.69 "Hg10 mi
9:53 AM42 °FLight rain. Cloudy.14 mph85%29.69 "Hg10 mi
8:53 AM41 °FLight rain. Cloudy.12 mph89%29.70 "Hg10 mi
7:53 AM41 °FCloudy.15 mph89%29.70 "Hg10 mi
6:53 AM40 °FMostly cloudy.10 mph93%29.70 "Hg10 mi
5:53 AM41 °FLight rain. Mostly cloudy.15 mph86%29.70 "Hg10 mi
4:53 AM41 °FLight rain. Mostly cloudy.16 mph89%29.71 "Hg10 mi
3:53 AM42 °FOvercast.18 mph85%29.72 "Hg10 mi
Weather by CustomWeather, © 2016

See weather overviewHow to use our weather pages